FW9985 Weather Reports


Display with metric or nautical units.
time (UTC)temp
F
wind
direction
speed
MPH
gust
MPH
rain 1hr
in
rain 24hr
in
rain mn
in
humidity
%
barometer
mb
20260505113031 63 210 9.0 16.0 0.00 0.00 0.00 67 1007.9
20260505111530 62 221 10.0 15.0 0.00 0.00 0.00 67 1007.9
20260505101535 62 241 9.0 21.0 0.00 0.00 0.00 67 1007.3
20260505100034 63 221 11.0 19.0 0.00 0.00 0.00 67 1007.1
20260505094529 63 220 13.0 21.0 0.00 0.00 0.00 66 1007.0
20260505093033 63 241 11.0 20.0 0.00 0.00 0.00 67 1006.8
20260505091535 63 223 14.0 25.0 0.00 0.00 0.00 66 1006.6
20260505090040 63 228 13.0 26.0 0.00 0.00 0.00 67 1006.6
20260505084537 63 231 13.0 25.0 0.00 0.00 0.00 66 1006.4
20260505083031 63 221 12.0 20.0 0.00 0.00 0.00 67 1006.5
20260505081532 64 206 15.0 27.0 0.00 0.00 0.00 66 1006.3
20260505080041 64 224 14.0 21.0 0.00 0.00 0.00 66 1006.2
20260505074531 63 224 14.0 22.0 0.00 0.00 0.00 67 1006.2
20260505073035 64 218 13.0 22.0 0.00 0.00 0.00 66 1006.0
20260505071537 64 201 14.0 24.0 0.00 0.00 0.00 66 1005.9
20260505070034 64 232 13.0 19.0 0.00 0.00 0.00 66 1006.0
20260505064536 64 222 15.0 21.0 0.00 0.00 0.00 66 1006.0
20260505063031 63 226 8.0 24.0 0.00 0.00 0.00 67 1006.2
20260505061532 64 215 12.0 20.0 0.00 0.00 0.00 67 1006.2
20260505060037 64 234 7.0 17.0 0.00 0.00 0.00 67 1006.4
20260505054530 64 246 9.0 15.0 0.00 0.00 0.00 65 1006.6
20260505053035 64 216 12.0 19.0 0.00 0.00 0.00 65 1006.9
20260505051531 64 211 10.0 17.0 0.00 0.00 0.00 67 1007.0
20260505041529 63 212 8.0 17.0 0.00 0.00 0.00 66 1007.0
20260505040031 63 229 9.0 15.0 0.00 0.00 0.00 67 1007.0
20260505034528 63 234 10.0 15.0 0.00 0.00 0.00 67 1007.1
20260505033035 63 209 8.0 15.0 0.00 0.00 0.00 67 1006.9
20260505031541 63 206 7.0 11.0 0.00 0.00 0.00 67 1007.0
20260505030030 63 210 6.0 16.0 0.00 0.00 0.00 66 1006.9
20260505024544 63 206 7.0 12.0 0.00 0.00 0.00 66 1007.1
20260505023038 63 209 7.0 13.0 0.00 0.00 0.00 65 1007.2
20260505021529 64 206 7.0 13.0 0.00 0.00 0.00 64 1007.3
20260505020030 64 212 5.0 10.0 0.00 0.00 0.00 63 1007.3
20260505014537 64 224 5.0 10.0 0.00 0.00 0.00 62 1007.2
20260505013032 65 231 6.0 14.0 0.00 0.00 0.00 61 1007.2
20260505011530 65 218 7.0 11.0 0.00 0.00 0.00 60 1007.0
20260505010030 66 208 9.0 17.0 0.00 0.00 0.00 58 1007.0
20260505004530 67 235 10.0 19.0 0.00 0.00 0.00 56 1006.8
20260505003032 67 217 11.0 20.0 0.00 0.00 0.00 55 1006.6
20260505001536 68 246 14.0 29.0 0.00 0.00 0.00 54 1006.6
20260505000032 68 238 11.0 20.0 0.00 0.00 0.00 53 1006.2
20260504234530 69 203 11.0 23.0 0.00 0.00 0.00 52 1006.2
20260504233030 69 229 11.0 24.0 0.00 0.00 0.00 51 1006.4
20260504231531 69 248 14.0 23.0 0.00 0.00 0.00 52 1006.4
20260504230031 70 220 15.0 20.0 0.00 0.00 0.00 52 1006.6
20260504224537 70 223 16.0 27.0 0.00 0.00 0.00 52 1006.5
20260504223032 71 265 20.0 31.0 0.00 0.00 0.00 50 1006.7
20260504221531 71 267 18.0 32.0 0.00 0.00 0.00 50 1006.7
20260504220031 71 240 17.0 25.0 0.00 0.00 0.00 51 1006.8
20260504214532 71 253 14.0 28.0 0.00 0.00 0.00 50 1006.9
20260504213030 71 232 13.0 24.0 0.00 0.00 0.00 51 1006.8
20260504211531 71 271 13.0 20.0 0.00 0.00 0.00 50 1006.7
20260504210046 72 233 14.0 24.0 0.00 0.00 0.00 50 1006.7
20260504204544 72 207 10.0 18.0 0.00 0.00 0.00 49 1006.6
20260504203036 73 257 19.0 29.0 0.00 0.00 0.00 48 1006.6
20260504201532 72 225 8.0 17.0 0.00 0.00 0.00 49 1006.7
20260504200032 71 249 14.0 25.0 0.00 0.00 0.00 49 1007.0
20260504194531 70 233 14.0 25.0 0.00 0.00 0.00 52 1007.2
20260504193035 70 218 15.0 29.0 0.00 0.00 0.00 51 1007.3
20260504191532 71 223 11.0 23.0 0.00 0.00 0.00 50 1007.5
20260504190031 70 219 13.0 20.0 0.00 0.00 0.00 51 1007.7
20260504184528 69 218 11.0 20.0 0.00 0.00 0.00 52 1007.7
20260504183030 69 226 15.0 27.0 0.00 0.00 0.00 50 1007.8
20260504181529 69 243 12.0 23.0 0.00 0.00 0.00 51 1008.1
20260504180030 68 225 12.0 23.0 0.00 0.00 0.00 52 1008.1
20260504174530 68 175 14.0 20.0 0.00 0.00 0.00 51 1008.3
20260504173030 68 205 11.0 25.0 0.00 0.00 0.00 51 1008.3
20260504171529 66 234 12.0 24.0 0.00 0.00 0.00 53 1008.6